| time (UTC) | temp C | wind direction | speed KPH | gust KPH | rain 1hr cm | rain 24hr cm | rain mn cm | humidity % | barometer mb |
| 20260507095547 | 8 | 0 | 0.0 | 0.0 | 0.00 | 0.00 | 0.00 | 90 | 1023.2 |
| 20260507095047 | 8 | 0 | 0.0 | 0.0 | 0.00 | 0.00 | 0.00 | 90 | 1023.2 |
| 20260507094557 | 9 | 0 | 0.0 | 0.0 | 0.00 | 0.00 | 0.00 | 89 | 1023.2 |
| 20260507094046 | 9 | 0 | 0.0 | 0.0 | 0.00 | 0.00 | 0.00 | 89 | 1023.0 |
| 20260507093547 | 9 | 0 | 0.0 | 0.0 | 0.00 | 0.00 | 0.00 | 89 | 1023.1 |
| 20260507093057 | 9 | 0 | 0.0 | 0.0 | 0.00 | 0.00 | 0.00 | 88 | 1023.2 |
| 20260507092547 | 10 | 0 | 0.0 | 0.0 | 0.00 | 0.00 | 0.00 | 88 | 1023.2 |
| 20260507092048 | 10 | 0 | 0.0 | 0.0 | 0.00 | 0.00 | 0.00 | 87 | 1023.2 |
| 20260507091600 | 10 | 0 | 0.0 | 0.0 | 0.00 | 0.00 | 0.00 | 87 | 1023.1 |
| 20260507091047 | 10 | 0 | 0.0 | 0.0 | 0.00 | 0.00 | 0.00 | 86 | 1023.2 |
| 20260507090547 | 10 | 0 | 0.0 | 1.6 | 0.00 | 0.00 | 0.00 | 87 | 1023.1 |
| 20260507090055 | 10 | 156 | 0.0 | 1.6 | 0.00 | 0.00 | 0.00 | 87 | 1023.1 |
| 20260507085546 | 10 | 179 | 0.0 | 1.6 | 0.00 | 0.00 | 0.00 | 87 | 1023.1 |
| 20260507085048 | 11 | 167 | 0.0 | 1.6 | 0.00 | 0.00 | 0.00 | 87 | 1023.3 |
| 20260507084601 | 11 | 169 | 0.0 | 1.6 | 0.00 | 0.00 | 0.00 | 87 | 1023.2 |
| 20260507084047 | 11 | 0 | 0.0 | 4.8 | 0.00 | 0.00 | 0.00 | 87 | 1023.4 |
| 20260507083546 | 11 | 0 | 0.0 | 4.8 | 0.00 | 0.00 | 0.00 | 86 | 1023.3 |
| 20260507083110 | 11 | 189 | 0.0 | 4.8 | 0.00 | 0.00 | 0.00 | 87 | 1023.2 |
| 20260507082546 | 11 | 192 | 1.6 | 4.8 | 0.00 | 0.00 | 0.00 | 87 | 1023.2 |
| 20260507082049 | 11 | 157 | 1.6 | 4.8 | 0.00 | 0.00 | 0.00 | 87 | 1023.3 |
| 20260507081600 | 11 | 173 | 1.6 | 4.8 | 0.00 | 0.00 | 0.00 | 88 | 1023.2 |
| 20260507081048 | 11 | 182 | 1.6 | 4.8 | 0.00 | 0.00 | 0.00 | 88 | 1023.2 |
| 20260507080547 | 11 | 184 | 1.6 | 3.2 | 0.00 | 0.00 | 0.00 | 88 | 1023.2 |
| 20260507080053 | 11 | 221 | 0.0 | 3.2 | 0.00 | 0.00 | 0.00 | 88 | 1023.3 |
| 20260507075547 | 11 | 241 | 0.0 | 3.2 | 0.00 | 0.00 | 0.00 | 88 | 1023.2 |
| 20260507075048 | 11 | 188 | 0.0 | 6.4 | 0.00 | 0.00 | 0.00 | 88 | 1023.4 |
| 20260507074558 | 11 | 176 | 0.0 | 6.4 | 0.00 | 0.00 | 0.00 | 88 | 1023.2 |
| 20260507074047 | 11 | 181 | 1.6 | 6.4 | 0.00 | 0.00 | 0.00 | 88 | 1023.4 |
| 20260507073547 | 11 | 170 | 1.6 | 6.4 | 0.00 | 0.00 | 0.00 | 88 | 1023.3 |
| 20260507073100 | 11 | 170 | 1.6 | 4.8 | 0.00 | 0.00 | 0.00 | 88 | 1023.3 |
| 20260507072547 | 11 | 238 | 1.6 | 4.8 | 0.00 | 0.00 | 0.00 | 88 | 1023.3 |
| 20260507072051 | 11 | 216 | 3.2 | 4.8 | 0.00 | 0.00 | 0.00 | 87 | 1023.1 |
| 20260507071555 | 11 | 223 | 3.2 | 8.0 | 0.00 | 0.00 | 0.00 | 87 | 1023.1 |
| 20260507071048 | 11 | 210 | 3.2 | 8.0 | 0.00 | 0.00 | 0.00 | 87 | 1023.2 |
| 20260507070550 | 11 | 238 | 4.8 | 8.0 | 0.00 | 0.00 | 0.00 | 87 | 1023.2 |
| 20260507070054 | 11 | 225 | 1.6 | 4.8 | 0.00 | 0.00 | 0.00 | 87 | 1023.2 |
| 20260507065546 | 11 | 219 | 1.6 | 4.8 | 0.00 | 0.00 | 0.00 | 87 | 1023.2 |
| 20260507065047 | 11 | 250 | 1.6 | 6.4 | 0.00 | 0.00 | 0.00 | 86 | 1023.2 |
| 20260507064602 | 11 | 233 | 3.2 | 6.4 | 0.00 | 0.00 | 0.00 | 86 | 1023.1 |
| 20260507064050 | 11 | 227 | 3.2 | 4.8 | 0.00 | 0.00 | 0.00 | 86 | 1023.1 |
| 20260507063547 | 11 | 233 | 3.2 | 6.4 | 0.00 | 0.00 | 0.00 | 86 | 1023.0 |
| 20260507063056 | 11 | 237 | 3.2 | 6.4 | 0.00 | 0.00 | 0.00 | 86 | 1023.1 |
| 20260507062549 | 12 | 223 | 1.6 | 8.0 | 0.00 | 0.00 | 0.00 | 86 | 1023.1 |
| 20260507062047 | 12 | 218 | 3.2 | 8.0 | 0.00 | 0.00 | 0.00 | 85 | 1023.0 |
| 20260507061559 | 12 | 259 | 3.2 | 6.4 | 0.00 | 0.00 | 0.00 | 85 | 1023.1 |
| 20260507061047 | 12 | 242 | 1.6 | 6.4 | 0.00 | 0.00 | 0.00 | 85 | 1023.1 |
| 20260507060547 | 12 | 250 | 1.6 | 6.4 | 0.00 | 0.00 | 0.00 | 84 | 1023.1 |
| 20260507060100 | 12 | 234 | 3.2 | 6.4 | 0.00 | 0.00 | 0.00 | 84 | 1023.1 |
| 20260507055547 | 12 | 236 | 0.0 | 3.2 | 0.00 | 0.00 | 0.00 | 84 | 1023.1 |
| 20260507055046 | 12 | 264 | 0.0 | 3.2 | 0.00 | 0.00 | 0.00 | 84 | 1023.1 |
| 20260507054554 | 12 | 0 | 0.0 | 3.2 | 0.00 | 0.00 | 0.00 | 83 | 1023.0 |
| 20260507054047 | 12 | 249 | 1.6 | 3.2 | 0.00 | 0.00 | 0.00 | 83 | 1023.1 |
| 20260507053547 | 12 | 248 | 0.0 | 1.6 | 0.00 | 0.00 | 0.00 | 82 | 1023.1 |
| 20260507053056 | 12 | 234 | 0.0 | 1.6 | 0.00 | 0.00 | 0.00 | 82 | 1023.1 |
| 20260507052548 | 12 | 0 | 0.0 | 1.6 | 0.00 | 0.00 | 0.00 | 82 | 1023.2 |
| 20260507052046 | 12 | 0 | 0.0 | 1.6 | 0.00 | 0.00 | 0.00 | 81 | 1023.2 |
| 20260507051556 | 12 | 0 | 0.0 | 4.8 | 0.00 | 0.00 | 0.00 | 81 | 1023.2 |
| 20260507051047 | 12 | 239 | 0.0 | 4.8 | 0.00 | 0.00 | 0.00 | 81 | 1023.2 |
| 20260507050550 | 12 | 61 | 0.0 | 1.6 | 0.00 | 0.00 | 0.00 | 81 | 1023.2 |
| 20260507050058 | 12 | 0 | 0.0 | 4.8 | 0.00 | 0.00 | 0.00 | 80 | 1023.1 |
| 20260507045549 | 12 | 0 | 0.0 | 4.8 | 0.00 | 0.00 | 0.00 | 80 | 1023.1 |
| 20260507045046 | 12 | 0 | 0.0 | 4.8 | 0.00 | 0.00 | 0.00 | 80 | 1023.1 |
| 20260507044553 | 12 | 0 | 0.0 | 1.6 | 0.00 | 0.00 | 0.00 | 80 | 1023.2 |
| 20260507044047 | 13 | 0 | 0.0 | 1.6 | 0.00 | 0.00 | 0.00 | 80 | 1023.1 |
| 20260507043547 | 13 | 250 | 0.0 | 6.4 | 0.00 | 0.00 | 0.00 | 80 | 1023.1 |
| 20260507043051 | 13 | 266 | 1.6 | 6.4 | 0.00 | 0.00 | 0.00 | 80 | 1023.0 |
| 20260507042547 | 13 | 231 | 0.0 | 3.2 | 0.00 | 0.00 | 0.00 | 80 | 1022.9 |
| 20260507042048 | 13 | 193 | 0.0 | 3.2 | 0.00 | 0.00 | 0.00 | 80 | 1023.0 |
| 20260507041549 | 13 | 0 | 0.0 | 3.2 | 0.00 | 0.00 | 0.00 | 79 | 1023.0 |
| 20260507041050 | 13 | 214 | 1.6 | 4.8 | 0.00 | 0.00 | 0.00 | 79 | 1023.1 |
| 20260507040547 | 13 | 169 | 0.0 | 4.8 | 0.00 | 0.00 | 0.00 | 79 | 1023.0 |
| 20260507040054 | 13 | 0 | 0.0 | 4.8 | 0.00 | 0.00 | 0.00 | 79 | 1022.9 |
| 20260507035547 | 13 | 0 | 1.6 | 4.8 | 0.00 | 0.00 | 0.00 | 79 | 1022.7 |
| 20260507035047 | 13 | 0 | 1.6 | 6.4 | 0.00 | 0.00 | 0.00 | 79 | 1022.7 |
| 20260507034556 | 13 | 237 | 3.2 | 6.4 | 0.00 | 0.00 | 0.00 | 79 | 1022.7 |
| 20260507034116 | 13 | 212 | 1.6 | 4.8 | 0.00 | 0.00 | 0.00 | 79 | 1022.6 |
| 20260507033547 | 13 | 0 | 0.0 | 3.2 | 0.00 | 0.00 | 0.00 | 79 | 1022.5 |
| 20260507033058 | 13 | 306 | 0.0 | 1.6 | 0.00 | 0.00 | 0.00 | 78 | 1022.6 |
| 20260507032547 | 13 | 0 | 0.0 | 1.6 | 0.00 | 0.00 | 0.00 | 78 | 1022.6 |
| 20260507032050 | 13 | 0 | 0.0 | 4.8 | 0.00 | 0.00 | 0.00 | 78 | 1022.4 |
| 20260507031557 | 13 | 231 | 0.0 | 4.8 | 0.00 | 0.00 | 0.00 | 78 | 1022.4 |
| 20260507031049 | 13 | 25 | 0.0 | 4.8 | 0.00 | 0.00 | 0.00 | 77 | 1022.3 |
| 20260507030546 | 13 | 188 | 0.0 | 4.8 | 0.00 | 0.00 | 0.00 | 77 | 1022.3 |
| 20260507030052 | 13 | 162 | 0.0 | 3.2 | 0.00 | 0.00 | 0.00 | 77 | 1022.3 |
| 20260507025549 | 13 | 0 | 0.0 | 8.0 | 0.00 | 0.00 | 0.00 | 77 | 1022.3 |
| 20260507025052 | 13 | 0 | 1.6 | 8.0 | 0.00 | 0.00 | 0.00 | 77 | 1022.3 |
| 20260507024625 | 13 | 22 | 0.0 | 4.8 | 0.00 | 0.00 | 0.00 | 77 | 1022.3 |
| 20260507024047 | 14 | 215 | 0.0 | 6.4 | 0.00 | 0.00 | 0.00 | 76 | 1022.2 |
| 20260507023554 | 14 | 210 | 0.0 | 6.4 | 0.00 | 0.00 | 0.00 | 76 | 1022.2 |
| 20260507023055 | 14 | 238 | 3.2 | 6.4 | 0.00 | 0.00 | 0.00 | 76 | 1022.2 |
| 20260507022554 | 14 | 0 | 0.0 | 6.4 | 0.00 | 0.00 | 0.00 | 76 | 1022.2 |
| 20260507022047 | 14 | 0 | 1.6 | 6.4 | 0.00 | 0.00 | 0.00 | 75 | 1022.0 |
| 20260507021552 | 14 | 0 | 0.0 | 3.2 | 0.00 | 0.00 | 0.00 | 76 | 1022.1 |
| 20260507021047 | 14 | 259 | 1.6 | 3.2 | 0.00 | 0.00 | 0.00 | 76 | 1022.1 |
| 20260507020547 | 14 | 0 | 0.0 | 8.0 | 0.00 | 0.00 | 0.00 | 76 | 1022.1 |
| 20260507020107 | 14 | 223 | 0.0 | 8.0 | 0.00 | 0.00 | 0.00 | 76 | 1022.1 |
| 20260507015546 | 15 | 238 | 4.8 | 8.0 | 0.00 | 0.00 | 0.00 | 75 | 1022.1 |
| 20260507015047 | 15 | 225 | 1.6 | 6.4 | 0.00 | 0.00 | 0.00 | 75 | 1022.1 |
| 20260507014605 | 15 | 225 | 1.6 | 6.4 | 0.00 | 0.00 | 0.00 | 75 | 1022.1 |
| 20260507014045 | 15 | 217 | 0.0 | 6.4 | 0.00 | 0.00 | 0.00 | 75 | 1022.0 |
| 20260507013546 | 15 | 276 | 0.0 | 6.4 | 0.00 | 0.00 | 0.00 | 75 | 1022.1 |
| 20260507013055 | 15 | 266 | 1.6 | 4.8 | 0.00 | 0.00 | 0.00 | 74 | 1022.0 |
| 20260507012547 | 15 | 231 | 1.6 | 4.8 | 0.00 | 0.00 | 0.00 | 74 | 1022.0 |
| 20260507012047 | 15 | 221 | 0.0 | 4.8 | 0.00 | 0.00 | 0.00 | 75 | 1021.9 |
| 20260507011551 | 15 | 47 | 0.0 | 4.8 | 0.00 | 0.00 | 0.00 | 74 | 1022.0 |
| 20260507011046 | 15 | 233 | 0.0 | 4.8 | 0.00 | 0.00 | 0.00 | 75 | 1022.0 |
| 20260507010547 | 15 | 236 | 0.0 | 8.0 | 0.00 | 0.00 | 0.00 | 75 | 1021.9 |
| 20260507010052 | 15 | 20 | 0.0 | 8.0 | 0.00 | 0.00 | 0.00 | 75 | 1022.1 |
| 20260507005546 | 15 | 240 | 0.0 | 3.2 | 0.00 | 0.00 | 0.00 | 73 | 1022.2 |
| 20260507005047 | 15 | 0 | 1.6 | 4.8 | 0.00 | 0.00 | 0.00 | 74 | 1022.2 |
| 20260507004552 | 15 | 176 | 0.0 | 4.8 | 0.00 | 0.00 | 0.00 | 74 | 1022.2 |
| 20260507004047 | 15 | 215 | 1.6 | 4.8 | 0.00 | 0.00 | 0.00 | 73 | 1022.2 |
| 20260507003547 | 15 | 233 | 1.6 | 6.4 | 0.00 | 0.00 | 0.00 | 73 | 1022.2 |
| 20260507003051 | 15 | 243 | 1.6 | 6.4 | 0.00 | 0.00 | 0.00 | 73 | 1022.3 |
| 20260507002547 | 15 | 140 | 1.6 | 6.4 | 0.00 | 0.00 | 0.00 | 72 | 1022.3 |
| 20260507002047 | 15 | 232 | 3.2 | 6.4 | 0.00 | 0.00 | 0.00 | 72 | 1022.3 |
| 20260507001601 | 15 | 0 | 3.2 | 4.8 | 0.00 | 0.00 | 0.00 | 72 | 1022.3 |
| 20260507001045 | 16 | 231 | 1.6 | 6.4 | 0.00 | 0.00 | 0.00 | 72 | 1022.3 |
| 20260507000547 | 16 | 79 | 0.0 | 6.4 | 0.00 | 0.00 | 0.00 | 71 | 1022.4 |
| 20260507000055 | 16 | 244 | 0.0 | 6.4 | 0.00 | 0.00 | 0.00 | 73 | 1022.4 |
| 20260506235546 | 16 | 202 | 1.6 | 6.4 | 0.00 | 0.00 | 0.00 | 72 | 1022.3 |
| 20260506235050 | 16 | 0 | 1.6 | 9.7 | 0.00 | 0.00 | 0.00 | 71 | 1022.4 |
| 20260506234601 | 16 | 162 | 1.6 | 9.7 | 0.00 | 0.00 | 0.00 | 71 | 1022.2 |
| 20260506234047 | 16 | 217 | 3.2 | 6.4 | 0.00 | 0.00 | 0.00 | 69 | 1022.2 |
| 20260506233549 | 16 | 221 | 0.0 | 8.0 | 0.00 | 0.00 | 0.00 | 70 | 1022.2 |
| 20260506233057 | 16 | 213 | 3.2 | 9.7 | 0.00 | 0.00 | 0.00 | 70 | 1022.2 |
| 20260506232546 | 16 | 276 | 3.2 | 9.7 | 0.00 | 0.00 | 0.00 | 70 | 1022.2 |
| 20260506232048 | 16 | 236 | 1.6 | 6.4 | 0.00 | 0.00 | 0.00 | 74 | 1022.3 |
| 20260506231558 | 15 | 184 | 3.2 | 6.4 | 0.00 | 0.00 | 0.00 | 73 | 1022.2 |
| 20260506231048 | 15 | 217 | 1.6 | 6.4 | 0.00 | 0.00 | 0.00 | 73 | 1022.2 |
| 20260506230546 | 15 | 255 | 0.0 | 4.8 | 0.00 | 0.00 | 0.00 | 73 | 1022.3 |
| 20260506230100 | 15 | 0 | 0.0 | 9.7 | 0.00 | 0.00 | 0.00 | 75 | 1022.3 |
| 20260506225547 | 15 | 234 | 1.6 | 9.7 | 0.00 | 0.00 | 0.00 | 74 | 1022.4 |
| 20260506225047 | 15 | 41 | 0.0 | 4.8 | 0.00 | 0.00 | 0.00 | 74 | 1022.4 |
| 20260506224552 | 15 | 222 | 1.6 | 4.8 | 0.00 | 0.00 | 0.00 | 74 | 1022.4 |
| 20260506224046 | 15 | 232 | 0.0 | 1.6 | 0.00 | 0.00 | 0.00 | 74 | 1022.4 |
| 20260506223549 | 15 | 0 | 0.0 | 4.8 | 0.00 | 0.00 | 0.00 | 75 | 1022.4 |
| 20260506223059 | 15 | 0 | 1.6 | 4.8 | 0.00 | 0.00 | 0.00 | 75 | 1022.5 |
| 20260506222547 | 15 | 4 | 1.6 | 4.8 | 0.00 | 0.00 | 0.00 | 74 | 1022.7 |
| 20260506222049 | 15 | 81 | 1.6 | 4.8 | 0.00 | 0.00 | 0.00 | 75 | 1022.6 |
| 20260506221554 | 15 | 228 | 0.0 | 4.8 | 0.00 | 0.00 | 0.00 | 76 | 1022.7 |
| 20260506221046 | 15 | 340 | 0.0 | 4.8 | 0.00 | 0.00 | 0.00 | 75 | 1022.9 |
| 20260506220547 | 15 | 0 | 1.6 | 3.2 | 0.00 | 0.00 | 0.00 | 75 | 1022.9 |
| 20260506220057 | 15 | 0 | 0.0 | 3.2 | 0.00 | 0.00 | 0.00 | 75 | 1022.8 |
| 20260506215546 | 15 | 229 | 0.0 | 3.2 | 0.00 | 0.00 | 0.00 | 76 | 1022.8 |
| 20260506215048 | 15 | 0 | 0.0 | 4.8 | 0.00 | 0.00 | 0.00 | 77 | 1022.7 |
| 20260506214553 | 14 | 0 | 1.6 | 9.7 | 0.00 | 0.00 | 0.00 | 76 | 1022.8 |
| 20260506214047 | 15 | 345 | 1.6 | 9.7 | 0.00 | 0.00 | 0.00 | 76 | 1022.8 |
| 20260506213546 | 15 | 51 | 0.0 | 3.2 | 0.00 | 0.00 | 0.00 | 76 | 1022.8 |
| 20260506213118 | 15 | 246 | 0.0 | 6.4 | 0.00 | 0.00 | 0.00 | 75 | 1022.7 |
| 20260506212547 | 15 | 0 | 1.6 | 6.4 | 0.00 | 0.00 | 0.00 | 75 | 1022.9 |
| 20260506212047 | 15 | 261 | 0.0 | 4.8 | 0.00 | 0.00 | 0.00 | 75 | 1022.7 |
| 20260506211604 | 15 | 328 | 0.0 | 4.8 | 0.00 | 0.00 | 0.00 | 75 | 1022.9 |
| 20260506211046 | 15 | 224 | 0.0 | 4.8 | 0.00 | 0.00 | 0.00 | 74 | 1022.7 |
| 20260506210545 | 15 | 239 | 0.0 | 4.8 | 0.00 | 0.00 | 0.00 | 75 | 1022.8 |
| 20260506205545 | 15 | 240 | 1.6 | 8.0 | 0.00 | 0.00 | 0.00 | 75 | 1022.8 |
| 20260506205047 | 15 | 219 | 3.2 | 8.0 | 0.00 | 0.00 | 0.00 | 75 | 1022.7 |
| 20260506204558 | 15 | 0 | 0.0 | 4.8 | 0.00 | 0.00 | 0.00 | 76 | 1022.7 |
| 20260506204046 | 15 | 247 | 0.0 | 4.8 | 0.00 | 0.00 | 0.00 | 76 | 1022.7 |
| 20260506203548 | 15 | 52 | 1.6 | 4.8 | 0.00 | 0.00 | 0.00 | 76 | 1022.7 |
| 20260506203054 | 15 | 226 | 1.6 | 6.4 | 0.00 | 0.00 | 0.00 | 77 | 1022.7 |
| 20260506202547 | 15 | 43 | 3.2 | 6.4 | 0.00 | 0.00 | 0.00 | 78 | 1022.5 |
| 20260506202049 | 15 | 203 | 3.2 | 8.0 | 0.00 | 0.00 | 0.00 | 77 | 1022.6 |
| 20260506201559 | 14 | 252 | 4.8 | 8.0 | 0.00 | 0.00 | 0.00 | 78 | 1022.5 |
| 20260506201048 | 14 | 188 | 1.6 | 6.4 | 0.00 | 0.00 | 0.00 | 78 | 1022.5 |
| 20260506200546 | 14 | 229 | 3.2 | 6.4 | 0.00 | 0.00 | 0.00 | 78 | 1022.5 |
| 20260506200059 | 14 | 135 | 0.0 | 4.8 | 0.00 | 0.00 | 0.00 | 79 | 1022.5 |
| 20260506195548 | 14 | 157 | 0.0 | 1.6 | 0.00 | 0.00 | 0.00 | 80 | 1022.5 |
| 20260506195048 | 14 | 0 | 0.0 | 4.8 | 0.00 | 0.00 | 0.00 | 79 | 1022.5 |
| 20260506194604 | 14 | 0 | 0.0 | 4.8 | 0.00 | 0.00 | 0.00 | 79 | 1022.6 |
| 20260506194050 | 14 | 0 | 0.0 | 6.4 | 0.00 | 0.00 | 0.00 | 81 | 1022.5 |
| 20260506193550 | 14 | 224 | 3.2 | 6.4 | 0.00 | 0.00 | 0.00 | 81 | 1022.4 |
| 20260506193054 | 14 | 170 | 1.6 | 3.2 | 0.00 | 0.00 | 0.00 | 81 | 1022.4 |
| 20260506192551 | 14 | 145 | 0.0 | 3.2 | 0.00 | 0.00 | 0.00 | 82 | 1022.3 |
| 20260506192049 | 13 | 0 | 0.0 | 3.2 | 0.00 | 0.00 | 0.00 | 81 | 1022.4 |
| 20260506191553 | 13 | 4 | 0.0 | 3.2 | 0.00 | 0.00 | 0.00 | 81 | 1022.3 |
| 20260506191047 | 13 | 0 | 0.0 | 6.4 | 0.00 | 0.00 | 0.00 | 82 | 1022.3 |
| 20260506190549 | 13 | 198 | 1.6 | 8.0 | 0.00 | 0.00 | 0.00 | 82 | 1022.4 |
| 20260506190055 | 13 | 179 | 4.8 | 8.0 | 0.00 | 0.00 | 0.00 | 82 | 1022.3 |
| 20260506185547 | 13 | 175 | 0.0 | 9.7 | 0.00 | 0.00 | 0.00 | 82 | 1022.4 |
| 20260506185049 | 13 | 166 | 3.2 | 9.7 | 0.00 | 0.00 | 0.00 | 82 | 1022.4 |
| 20260506184605 | 13 | 168 | 3.2 | 8.0 | 0.00 | 0.00 | 0.00 | 82 | 1022.5 |
| 20260506184047 | 13 | 174 | 1.6 | 8.0 | 0.00 | 0.00 | 0.00 | 81 | 1022.6 |
| 20260506183547 | 13 | 212 | 3.2 | 8.0 | 0.00 | 0.00 | 0.00 | 82 | 1022.6 |
| 20260506183103 | 13 | 199 | 3.2 | 9.7 | 0.00 | 0.00 | 0.00 | 81 | 1022.4 |
| 20260506182548 | 13 | 150 | 3.2 | 9.7 | 0.00 | 0.00 | 0.00 | 82 | 1022.2 |
| 20260506182052 | 13 | 153 | 3.2 | 9.7 | 0.00 | 0.00 | 0.00 | 82 | 1022.1 |
| 20260506181556 | 13 | 211 | 4.8 | 8.0 | 0.00 | 0.00 | 0.00 | 82 | 1022.0 |
| 20260506181051 | 13 | 162 | 3.2 | 9.7 | 0.00 | 0.00 | 0.00 | 82 | 1022.1 |
| 20260506180547 | 13 | 189 | 3.2 | 11.3 | 0.00 | 0.00 | 0.00 | 82 | 1022.2 |
| 20260506175546 | 13 | 157 | 3.2 | 6.4 | 0.00 | 0.00 | 0.00 | 83 | 1022.1 |
| 20260506175046 | 13 | 162 | 3.2 | 8.0 | 0.00 | 0.00 | 0.00 | 83 | 1022.2 |
| 20260506174551 | 13 | 156 | 1.6 | 9.7 | 0.00 | 0.00 | 0.00 | 84 | 1022.3 |
| 20260506174047 | 13 | 202 | 4.8 | 9.7 | 0.00 | 0.00 | 0.00 | 84 | 1022.2 |
| 20260506173547 | 13 | 147 | 4.8 | 9.7 | 0.00 | 0.00 | 0.00 | 84 | 1022.3 |
| 20260506173054 | 13 | 159 | 3.2 | 8.0 | 0.00 | 0.00 | 0.00 | 84 | 1022.4 |
| 20260506172551 | 13 | 221 | 1.6 | 8.0 | 0.00 | 0.00 | 0.00 | 84 | 1022.3 |
| 20260506172047 | 13 | 132 | 4.8 | 8.0 | 0.00 | 0.00 | 0.00 | 84 | 1022.2 |
| 20260506171555 | 13 | 215 | 3.2 | 6.4 | 0.00 | 0.00 | 0.00 | 84 | 1022.3 |
| 20260506171053 | 13 | 225 | 1.6 | 8.0 | 0.00 | 0.00 | 0.00 | 84 | 1022.3 |
| 20260506170549 | 12 | 225 | 3.2 | 9.7 | 0.00 | 0.00 | 0.00 | 84 | 1022.2 |
| 20260506170114 | 12 | 183 | 3.2 | 9.7 | 0.00 | 0.00 | 0.00 | 84 | 1022.3 |
| 20260506165550 | 12 | 183 | 4.8 | 8.0 | 0.00 | 0.00 | 0.00 | 84 | 1022.3 |
| 20260506165051 | 13 | 256 | 1.6 | 6.4 | 0.00 | 0.00 | 0.00 | 85 | 1022.1 |
| 20260506164556 | 12 | 243 | 1.6 | 6.4 | 0.00 | 0.00 | 0.00 | 85 | 1022.1 |
| 20260506164048 | 12 | 243 | 3.2 | 8.0 | 0.00 | 0.00 | 0.00 | 86 | 1022.0 |
| 20260506163551 | 12 | 186 | 4.8 | 9.7 | 0.00 | 0.00 | 0.00 | 86 | 1021.9 |
| 20260506163110 | 12 | 198 | 3.2 | 9.7 | 0.00 | 0.00 | 0.00 | 86 | 1021.9 |
| 20260506162548 | 12 | 193 | 4.8 | 9.7 | 0.00 | 0.00 | 0.00 | 86 | 1021.9 |
| 20260506162048 | 12 | 214 | 3.2 | 11.3 | 0.00 | 0.00 | 0.00 | 86 | 1021.8 |
| 20260506161556 | 12 | 182 | 6.4 | 11.3 | 0.00 | 0.00 | 0.00 | 86 | 1021.8 |
| 20260506161047 | 12 | 174 | 3.2 | 6.4 | 0.00 | 0.00 | 0.00 | 86 | 1021.7 |
| 20260506160547 | 12 | 205 | 1.6 | 3.2 | 0.00 | 0.00 | 0.00 | 87 | 1021.9 |
| 20260506160100 | 12 | 172 | 1.6 | 8.0 | 0.00 | 0.00 | 0.00 | 88 | 1021.9 |
| 20260506155547 | 12 | 186 | 0.0 | 8.0 | 0.00 | 0.00 | 0.00 | 88 | 1022.0 |
| 20260506155051 | 12 | 186 | 1.6 | 8.0 | 0.00 | 0.00 | 0.00 | 88 | 1022.2 |
| 20260506154604 | 12 | 219 | 0.0 | 6.4 | 0.00 | 0.00 | 0.00 | 89 | 1022.0 |
| 20260506154048 | 12 | 250 | 0.0 | 8.0 | 0.00 | 0.00 | 0.00 | 89 | 1022.0 |
| 20260506153546 | 12 | 210 | 3.2 | 8.0 | 0.00 | 0.00 | 0.00 | 89 | 1021.8 |
| 20260506153056 | 12 | 227 | 4.8 | 9.7 | 0.00 | 0.00 | 0.00 | 89 | 1021.8 |
| 20260506152547 | 12 | 171 | 4.8 | 9.7 | 0.00 | 0.00 | 0.00 | 89 | 1021.6 |
| 20260506152050 | 12 | 147 | 4.8 | 8.0 | 0.00 | 0.00 | 0.00 | 89 | 1021.8 |
| 20260506151555 | 12 | 167 | 1.6 | 8.0 | 0.00 | 0.00 | 0.00 | 89 | 1021.8 |
| 20260506151051 | 12 | 184 | 4.8 | 8.0 | 0.00 | 0.00 | 0.00 | 89 | 1021.9 |
| 20260506150550 | 12 | 147 | 3.2 | 8.0 | 0.00 | 0.00 | 0.00 | 89 | 1022.0 |
| 20260506150053 | 12 | 144 | 1.6 | 8.0 | 0.00 | 0.00 | 0.00 | 89 | 1021.9 |
| 20260506145549 | 12 | 211 | 1.6 | 4.8 | 0.00 | 0.00 | 0.00 | 89 | 1022.0 |
| 20260506145051 | 12 | 0 | 0.0 | 6.4 | 0.00 | 0.00 | 0.00 | 89 | 1021.9 |
| 20260506144603 | 12 | 165 | 1.6 | 6.4 | 0.00 | 0.00 | 0.00 | 89 | 1021.8 |
| 20260506144048 | 12 | 179 | 3.2 | 8.0 | 0.00 | 0.00 | 0.00 | 89 | 1021.6 |
| 20260506143548 | 12 | 201 | 4.8 | 9.7 | 0.00 | 0.00 | 0.00 | 88 | 1021.6 |
| 20260506143050 | 12 | 176 | 6.4 | 9.7 | 0.00 | 0.00 | 0.00 | 88 | 1021.2 |
| 20260506142549 | 12 | 192 | 4.8 | 9.7 | 0.00 | 0.00 | 0.00 | 88 | 1021.4 |
| 20260506142045 | 12 | 172 | 4.8 | 9.7 | 0.00 | 0.00 | 0.00 | 88 | 1021.6 |
| 20260506141549 | 12 | 199 | 4.8 | 6.4 | 0.00 | 0.00 | 0.00 | 88 | 1021.7 |
| 20260506141051 | 12 | 195 | 3.2 | 8.0 | 0.00 | 0.00 | 0.00 | 88 | 1021.7 |
| 20260506140547 | 12 | 218 | 3.2 | 9.7 | 0.00 | 0.00 | 0.00 | 88 | 1021.7 |
| 20260506140052 | 12 | 205 | 3.2 | 9.7 | 0.00 | 0.00 | 0.00 | 88 | 1021.5 |
| 20260506135545 | 12 | 167 | 3.2 | 9.7 | 0.00 | 0.00 | 0.00 | 88 | 1021.5 |
| 20260506135048 | 12 | 174 | 3.2 | 9.7 | 0.00 | 0.00 | 0.00 | 88 | 1021.5 |
| 20260506134552 | 12 | 181 | 3.2 | 6.4 | 0.00 | 0.00 | 0.00 | 88 | 1021.5 |
| 20260506134049 | 12 | 198 | 4.8 | 6.4 | 0.00 | 0.00 | 0.00 | 88 | 1021.4 |
| 20260506133545 | 12 | 173 | 1.6 | 6.4 | 0.00 | 0.00 | 0.00 | 88 | 1021.5 |
| 20260506133052 | 12 | 231 | 1.6 | 6.4 | 0.00 | 0.00 | 0.00 | 89 | 1021.3 |
| 20260506132548 | 12 | 217 | 3.2 | 8.0 | 0.00 | 0.00 | 0.00 | 89 | 1021.3 |
| 20260506132052 | 12 | 230 | 3.2 | 8.0 | 0.00 | 0.00 | 0.00 | 89 | 1021.0 |
| 20260506131551 | 12 | 181 | 1.6 | 8.0 | 0.00 | 0.00 | 0.00 | 90 | 1021.0 |
| 20260506131050 | 12 | 219 | 3.2 | 8.0 | 0.00 | 0.00 | 0.00 | 90 | 1021.0 |
| 20260506130548 | 12 | 214 | 3.2 | 6.4 | 0.00 | 0.00 | 0.00 | 90 | 1020.9 |
| 20260506130058 | 12 | 200 | 1.6 | 6.4 | 0.00 | 0.00 | 0.00 | 90 | 1020.9 |
| 20260506125550 | 12 | 180 | 1.6 | 8.0 | 0.00 | 0.00 | 0.00 | 91 | 1021.0 |
| 20260506125045 | 12 | 228 | 1.6 | 8.0 | 0.00 | 0.00 | 0.00 | 91 | 1020.9 |
| 20260506124552 | 11 | 186 | 3.2 | 8.0 | 0.00 | 0.00 | 0.00 | 91 | 1020.8 |
| 20260506124048 | 11 | 198 | 3.2 | 6.4 | 0.00 | 0.00 | 0.00 | 91 | 1020.8 |
| 20260506123545 | 11 | 204 | 3.2 | 6.4 | 0.00 | 0.00 | 0.00 | 92 | 1020.7 |
| 20260506123052 | 11 | 209 | 3.2 | 6.4 | 0.00 | 0.00 | 0.00 | 92 | 1020.7 |
| 20260506122544 | 11 | 174 | 3.2 | 4.8 | 0.00 | 0.00 | 0.00 | 92 | 1020.7 |
| 20260506122050 | 11 | 203 | 1.6 | 4.8 | 0.00 | 0.00 | 0.00 | 92 | 1020.8 |
| 20260506121556 | 11 | 231 | 1.6 | 6.4 | 0.00 | 0.00 | 0.00 | 92 | 1020.8 |
| 20260506121049 | 11 | 0 | 1.6 | 6.4 | 0.00 | 0.00 | 0.00 | 91 | 1020.7 |
| 20260506120548 | 11 | 188 | 1.6 | 6.4 | 0.00 | 0.00 | 0.00 | 91 | 1020.7 |
| 20260506120053 | 12 | 0 | 0.0 | 0.0 | 0.00 | 0.00 | 0.00 | 91 | 1020.7 |
| 20260506115548 | 12 | 0 | 0.0 | 4.8 | 0.00 | 0.00 | 0.00 | 91 | 1020.5 |
| 20260506115047 | 12 | 0 | 1.6 | 4.8 | 0.00 | 0.00 | 0.00 | 90 | 1020.5 |
| 20260506114556 | 12 | 174 | 1.6 | 4.8 | 0.00 | 0.00 | 0.00 | 90 | 1020.4 |
| 20260506114047 | 12 | 195 | 1.6 | 3.2 | 0.00 | 0.00 | 0.00 | 89 | 1020.6 |
| 20260506113547 | 12 | 214 | 0.0 | 1.6 | 0.00 | 0.00 | 0.00 | 89 | 1020.7 |
| 20260506113057 | 12 | 229 | 0.0 | 1.6 | 0.00 | 0.00 | 0.00 | 89 | 1020.7 |
| 20260506112548 | 12 | 202 | 0.0 | 8.0 | 0.00 | 0.00 | 0.00 | 88 | 1020.6 |
| 20260506112048 | 12 | 242 | 1.6 | 8.0 | 0.00 | 0.00 | 0.00 | 88 | 1020.6 |
| 20260506111556 | 12 | 221 | 3.2 | 8.0 | 0.00 | 0.00 | 0.00 | 88 | 1020.6 |
| 20260506111047 | 12 | 207 | 0.0 | 4.8 | 0.00 | 0.00 | 0.00 | 87 | 1020.4 |
| 20260506110550 | 12 | 176 | 1.6 | 4.8 | 0.00 | 0.00 | 0.00 | 87 | 1020.5 |
| 20260506110055 | 12 | 176 | 1.6 | 4.8 | 0.00 | 0.00 | 0.00 | 87 | 1020.4 |
| 20260506105548 | 12 | 0 | 0.0 | 3.2 | 0.00 | 0.00 | 0.00 | 87 | 1020.4 |
| 20260506105051 | 12 | 224 | 0.0 | 3.2 | 0.00 | 0.00 | 0.00 | 87 | 1020.5 |
| 20260506104559 | 12 | 166 | 0.0 | 4.8 | 0.00 | 0.00 | 0.00 | 87 | 1020.4 |
| 20260506104048 | 12 | 176 | 1.6 | 6.4 | 0.00 | 0.00 | 0.00 | 87 | 1020.3 |
| 20260506103547 | 12 | 201 | 3.2 | 6.4 | 0.00 | 0.00 | 0.00 | 87 | 1020.2 |
| 20260506103117 | 12 | 156 | 1.6 | 4.8 | 0.00 | 0.00 | 0.00 | 87 | 1020.1 |
| 20260506102547 | 12 | 0 | 0.0 | 3.2 | 0.00 | 0.00 | 0.00 | 87 | 1020.1 |
| 20260506102048 | 12 | 172 | 1.6 | 3.2 | 0.00 | 0.00 | 0.00 | 87 | 1020.2 |
| 20260506101557 | 12 | 122 | 0.0 | 1.6 | 0.00 | 0.00 | 0.00 | 87 | 1020.0 |
| 20260506101048 | 12 | 228 | 0.0 | 4.8 | 0.00 | 0.00 | 0.00 | 87 | 1019.9 |
| 20260506100548 | 12 | 180 | 1.6 | 4.8 | 0.00 | 0.00 | 0.00 | 87 | 1019.8 |
| 20260506100054 | 12 | 150 | 0.0 | 3.2 | 0.00 | 0.00 | 0.00 | 87 | 1019.8 |